�������l�o���
Date,Time,MP-1(��Sv/h),MP-2(��Sv/h),MP-3(��Sv/h),MP-4(��Sv/h),MP-5(��Sv/h),MP-6(��Sv/h),MP-7(��Sv/h),MP-8(��Sv/h),����,����(m/s),���J
2023/09/21,00:00,0.537,0.819,0.499,1.015,0.723,0.325,0.579,0.536,���쐼,2.0,��
2023/09/21,00:10,0.537,0.820,0.498,1.017,0.723,0.324,0.579,0.535,���쐼,2.2,��
2023/09/21,00:20,0.537,0.818,0.497,1.012,0.724,0.324,0.578,0.537,���쐼,1.5,�L
2023/09/21,00:30,0.538,0.817,0.497,1.016,0.724,0.325,0.577,0.536,��,2.0,��
2023/09/21,00:40,0.537,0.818,0.499,1.016,0.723,0.325,0.578,0.535,���k��,2.6,��
2023/09/21,00:50,0.538,0.818,0.498,1.014,0.726,0.325,0.577,0.535,���k��,2.0,��
2023/09/21,01:00,0.538,0.819,0.498,1.016,0.724,0.325,0.579,0.536,��,1.2,��
2023/09/21,01:10,0.538,0.818,0.498,1.017,0.721,0.323,0.579,0.537,���k��,1.5,��
2023/09/21,01:20,0.539,0.820,0.499,1.015,0.723,0.324,0.580,0.538,�k��,1.2,��
2023/09/21,01:30,0.540,0.818,0.499,1.015,0.723,0.324,0.576,0.536,�k��,3.6,��
2023/09/21,01:40,0.540,0.819,0.498,1.015,0.723,0.324,0.580,0.537,�k��,3.6,��
2023/09/21,01:50,0.539,0.817,0.499,1.015,0.722,0.324,0.581,0.536,�k�k��,4.5,��
2023/09/21,02:00,0.539,0.818,0.499,1.016,0.725,0.325,0.579,0.536,�k�k��,3.9,��
2023/09/21,02:10,0.539,0.820,0.498,1.015,0.724,0.324,0.581,0.538,�k�k��,4.8,��
2023/09/21,02:20,0.538,0.821,0.499,1.016,0.723,0.325,0.579,0.536,�k�k��,5.7,��
2023/09/21,02:30,0.537,0.819,0.499,1.015,0.723,0.324,0.577,0.537,�k,4.7,��
2023/09/21,02:40,0.539,0.821,0.500,1.014,0.724,0.325,0.579,0.535,�k,5.4,��
2023/09/21,02:50,0.539,0.821,0.499,1.015,0.723,0.324,0.579,0.536,�k�k��,4.8,��
2023/09/21,03:00,0.539,0.819,0.500,1.017,0.723,0.324,0.578,0.536,�k�k��,4.6,��
2023/09/21,03:10,0.538,0.820,0.498,1.017,0.724,0.324,0.578,0.535,�k�k��,4.1,��
2023/09/21,03:20,0.538,0.820,0.499,1.016,0.724,0.325,0.580,0.537,�k�k��,4.2,��
2023/09/21,03:30,0.538,0.818,0.500,1.016,0.722,0.325,0.579,0.537,�k�k��,4.4,��
2023/09/21,03:40,0.538,0.818,0.500,1.016,0.724,0.323,0.579,0.536,�k�k��,3.3,��
2023/09/21,03:50,0.537,0.817,0.499,1.015,0.724,0.323,0.579,0.537,�k�k��,3.3,��
2023/09/21,04:00,0.539,0.817,0.499,1.017,0.723,0.324,0.580,0.536,�k,3.2,��
2023/09/21,04:10,0.540,0.820,0.498,1.019,0.722,0.326,0.579,0.535,�k,3.7,��
2023/09/21,04:20,0.539,0.819,0.497,1.018,0.724,0.323,0.581,0.537,�k�k��,4.2,��
2023/09/21,04:30,0.539,0.819,0.499,1.014,0.722,0.323,0.580,0.538,�k�k��,4.4,��
2023/09/21,04:40,0.537,0.818,0.498,1.017,0.724,0.325,0.580,0.538,�k�k��,4.4,��
2023/09/21,04:50,0.540,0.819,0.499,1.016,0.724,0.324,0.580,0.537,�k�k��,5.1,��
2023/09/21,05:00,0.539,0.818,0.499,1.017,0.723,0.324,0.581,0.536,�k�k��,5.6,��
2023/09/21,05:10,0.539,0.818,0.497,1.016,0.721,0.323,0.579,0.538,�k�k��,6.5,��
2023/09/21,05:20,0.539,0.820,0.498,1.018,0.722,0.324,0.578,0.537,�k�k��,5.6,��
2023/09/21,05:30,0.537,0.820,0.498,1.017,0.723,0.324,0.578,0.537,�k�k��,5.6,��
2023/09/21,05:40,0.540,0.821,0.498,1.017,0.723,0.325,0.579,0.536,�k�k��,5.9,��
2023/09/21,05:50,0.541,0.820,0.499,1.017,0.724,0.324,0.579,0.536,�k�k��,5.7,��
2023/09/21,06:00,0.539,0.818,0.497,1.016,0.724,0.324,0.580,0.537,�k�k��,5.9,��
2023/09/21,06:10,0.537,0.817,0.497,1.015,0.723,0.324,0.578,0.537,�k�k��,5.1,��
2023/09/21,06:20,0.538,0.817,0.500,1.015,0.723,0.323,0.579,0.537,�k��,5.0,��
2023/09/21,06:30,0.539,0.820,0.499,1.015,0.725,0.325,0.578,0.537,�k��,5.5,��
2023/09/21,06:40,0.537,0.819,0.499,1.016,0.725,0.324,0.579,0.536,�k��,5.7,��
2023/09/21,06:50,0.538,0.819,0.497,1.017,0.723,0.325,0.580,0.536,�k��,4.8,��
2023/09/21,07:00,0.538,0.819,0.501,1.015,0.723,0.325,0.578,0.537,�k��,4.8,��
2023/09/21,07:10,0.538,0.819,0.498,1.015,0.723,0.325,0.579,0.536,�k�k��,4.9,��
2023/09/21,07:20,0.537,0.818,0.498,1.015,0.723,0.323,0.577,0.536,�k�k��,4.7,��
2023/09/21,07:30,0.538,0.817,0.499,1.015,0.724,0.324,0.577,0.537,�k�k��,3.9,�L
2023/09/21,07:40,0.538,0.817,0.497,1.016,0.723,0.324,0.577,0.537,�k��,3.8,�L
2023/09/21,07:50,0.540,0.818,0.500,1.015,0.723,0.324,0.578,0.536,�k�k��,2.8,��
2023/09/21,08:00,0.538,0.819,0.499,1.015,0.722,0.323,0.577,0.535,�k�k��,3.2,��
2023/09/21,08:10,0.538,0.818,0.497,1.017,0.724,0.324,0.577,0.537,�k�k��,3.4,��
2023/09/21,08:20,0.538,0.818,0.497,1.015,0.722,0.323,0.578,0.537,�k�k��,2.6,��
2023/09/21,08:30,0.537,0.817,0.500,1.014,0.723,0.323,0.577,0.537,�k�k��,2.9,��
2023/09/21,08:40,0.538,0.819,0.498,1.018,0.723,0.325,0.576,0.536,�k��,2.9,�L
2023/09/21,08:50,0.540,0.818,0.498,1.015,0.723,0.323,0.577,0.537,�k�k��,3.1,�L
2023/09/21,09:00,0.539,0.816,0.497,1.015,0.724,0.322,0.578,0.536,�k,1.9,�L
2023/09/21,09:10,0.539,0.820,0.497,1.016,0.722,0.324,0.578,0.536,�k�k��,2.3,��
2023/09/21,09:20,0.540,0.818,0.498,1.014,0.721,0.323,0.577,0.536,�k�k��,1.7,��
2023/09/21,09:30,0.537,0.816,0.497,1.011,0.723,0.322,0.578,0.537,�k,2.3,��
2023/09/21,09:40,0.537,0.818,0.497,1.008,0.723,0.324,0.577,0.538,�k��,2.0,��
2023/09/21,09:50,0.537,0.819,0.499,1.008,0.718,0.323,0.577,0.534,���k��,2.5,��
2023/09/21,10:00,0.537,0.819,0.497,1.006,0.716,0.324,0.576,0.536,�k��,2.6,��
2023/09/21,10:10,0.537,0.817,0.498,1.006,0.721,0.322,0.577,0.534,��,1.9,�L
2023/09/21,10:20,0.538,0.818,0.497,1.006,0.721,0.323,0.576,0.536,�k�k��,1.7,�L
2023/09/21,10:30,0.537,0.820,0.499,1.009,0.719,0.324,0.578,0.537,�k,2.3,�L
2023/09/21,10:40,0.539,0.819,0.498,1.010,0.717,0.323,0.576,0.536,�k�k��,1.7,�L
2023/09/21,10:50,0.540,0.818,0.499,1.008,0.707,0.324,0.577,0.536,�k��,1.4,�L
2023/09/21,11:00,0.540,0.820,0.497,1.008,0.713,0.325,0.578,0.538,�k��,0.9,�L
2023/09/21,11:10,0.540,0.819,0.499,1.008,0.719,0.326,0.579,0.538,�k�k��,1.4,�L
2023/09/21,11:20,0.540,0.818,0.501,1.006,0.720,0.326,0.580,0.537,�k�k��,1.2,�L
2023/09/21,11:30,0.541,0.818,0.498,1.009,0.724,0.326,0.578,0.537,�k,1.2,�L
2023/09/21,11:40,0.541,0.820,0.498,1.007,0.722,0.326,0.578,0.537,�k�k��,1.4,��
2023/09/21,11:50,0.541,0.819,0.498,1.005,0.718,0.324,0.577,0.536,�k�k��,1.4,��
2023/09/21,12:00,0.540,0.818,0.499,1.004,0.724,0.326,0.578,0.537,���k��,0.8,�L
2023/09/21,12:10,0.539,0.820,0.499,1.008,0.723,0.326,0.578,0.537,���쓌,0.9,�L
2023/09/21,12:20,0.540,0.819,0.498,1.010,0.723,0.325,0.578,0.538,-,CALM,�L
2023/09/21,12:30,0.538,0.819,0.498,1.010,0.725,0.326,0.580,0.538,���쓌,1.4,�L
2023/09/21,12:40,0.539,0.817,0.499,1.010,0.723,0.326,0.579,0.536,���쓌,2.5,�L
2023/09/21,12:50,0.539,0.818,0.498,1.012,0.724,0.326,0.577,0.536,���쓌,2.6,�L
2023/09/21,13:00,0.540,0.816,0.498,1.012,0.724,0.325,0.578,0.537,���쓌,2.3,�L
2023/09/21,13:10,0.541,0.820,0.499,1.012,0.724,0.325,0.578,0.538,�쓌,1.5,�L
2023/09/21,13:20,0.540,0.819,0.498,1.012,0.723,0.325,0.578,0.537,��쓌,1.7,�L
2023/09/21,13:30,0.541,0.820,0.497,1.013,0.725,0.326,0.577,0.537,�쓌,2.3,�L
2023/09/21,13:40,0.540,0.819,0.499,1.012,0.722,0.326,0.578,0.538,��쓌,3.4,�L
2023/09/21,13:50,0.541,0.820,0.497,1.011,0.722,0.325,0.579,0.538,��쓌,5.3,�L
2023/09/21,14:00,0.540,0.819,0.498,1.013,0.712,0.326,0.579,0.538,��쓌,6.2,��
2023/09/21,14:10,0.540,0.820,0.500,1.011,0.712,0.325,0.579,0.537,��쓌,7.1,��
2023/09/21,14:20,0.541,0.819,0.501,1.013,0.720,0.325,0.579,0.538,��쓌,8.0,��
2023/09/21,14:30,0.539,0.818,0.499,1.013,0.720,0.325,0.578,0.538,��쓌,7.5,��
2023/09/21,14:40,0.540,0.819,0.499,1.011,0.722,0.326,0.580,0.539,��쓌,7.0,��
2023/09/21,14:50,0.538,0.819,0.499,1.011,0.723,0.325,0.579,0.537,��쓌,6.0,��
2023/09/21,15:00,0.541,0.818,0.497,1.013,0.721,0.324,0.580,0.538,��쓌,8.4,��
2023/09/21,15:10,0.541,0.819,0.497,1.012,0.724,0.326,0.581,0.536,��쓌,7.4,��
2023/09/21,15:20,0.539,0.819,0.497,1.013,0.726,0.325,0.579,0.537,��,8.3,��
2023/09/21,15:30,0.538,0.818,0.499,1.010,0.724,0.324,0.580,0.537,��쓌,8.9,��
2023/09/21,15:40,0.537,0.819,0.497,1.012,0.725,0.323,0.579,0.538,��,7.8,��
2023/09/21,15:50,0.537,0.816,0.498,1.010,0.723,0.325,0.578,0.539,��쓌,8.7,��
2023/09/21,16:00,0.539,0.819,0.500,1.011,0.724,0.325,0.580,0.538,��,8.7,��
2023/09/21,16:10,0.539,0.819,0.498,1.013,0.724,0.324,0.580,0.537,��쓌,8.9,��
2023/09/21,16:20,0.539,0.820,0.498,1.010,0.723,0.324,0.579,0.538,��,8.6,��
2023/09/21,16:30,0.539,0.819,0.500,1.013,0.724,0.325,0.580,0.537,��,8.4,��
2023/09/21,16:40,0.538,0.819,0.499,1.011,0.722,0.323,0.580,0.538,��,7.2,��
2023/09/21,16:50,0.539,0.818,0.497,1.012,0.723,0.324,0.580,0.536,��,6.5,��
2023/09/21,17:00,0.539,0.818,0.498,1.011,0.726,0.325,0.580,0.537,��,7.7,��
2023/09/21,17:10,0.540,0.817,0.499,1.012,0.722,0.326,0.578,0.536,��,8.8,��
2023/09/21,17:20,-,-,-,-,-,-,-,-,-,-,-
2023/09/21,17:30,0.537,0.819,0.499,1.012,0.724,0.326,0.581,0.537,��,9.6,��
2023/09/21,17:40,0.539,0.820,0.498,1.014,0.724,0.325,0.579,0.539,��,10.5,��
2023/09/21,17:50,0.539,0.819,0.499,1.011,0.724,0.325,0.579,0.537,��,9.5,��
2023/09/21,18:00,0.541,0.819,0.498,1.010,0.723,0.326,0.581,0.538,��,9.8,��
2023/09/21,18:10,0.540,0.819,0.499,1.013,0.722,0.326,0.578,0.538,��,11.3,��
2023/09/21,18:20,0.540,0.817,0.497,1.013,0.721,0.325,0.580,0.538,��,10.5,��
2023/09/21,18:30,0.539,0.819,0.498,1.013,0.725,0.327,0.580,0.536,��,10.2,��
2023/09/21,18:40,0.540,0.818,0.498,1.013,0.725,0.326,0.579,0.537,��,9.3,��
2023/09/21,18:50,0.539,0.818,0.498,1.012,0.724,0.326,0.580,0.539,��,7.8,��
2023/09/21,19:00,0.539,0.818,0.499,1.014,0.724,0.327,0.578,0.537,��,7.6,��
2023/09/21,19:10,0.540,0.819,0.497,1.011,0.723,0.326,0.580,0.539,��,7.6,��
2023/09/21,19:20,0.539,0.818,0.498,1.014,0.724,0.327,0.579,0.538,��,8.3,��
2023/09/21,19:30,0.540,0.817,0.498,1.011,0.724,0.325,0.579,0.537,��,9.5,��
2023/09/21,19:40,0.541,0.818,0.499,1.012,0.723,0.327,0.578,0.537,��쐼,8.9,��
2023/09/21,19:50,0.538,0.820,0.500,1.011,0.723,0.328,0.579,0.538,��쐼,9.5,��
2023/09/21,20:00,0.539,0.818,0.497,1.010,0.725,0.327,0.580,0.538,��,11.1,��
2023/09/21,20:10,0.540,0.817,0.498,1.011,0.724,0.325,0.578,0.539,��쐼,10.0,��
2023/09/21,20:20,0.540,0.817,0.500,1.012,0.723,0.326,0.580,0.539,��쐼,9.3,��
2023/09/21,20:30,0.540,0.817,0.497,1.012,0.726,0.326,0.580,0.536,��쐼,9.0,��
2023/09/21,20:40,0.540,0.819,0.499,1.013,0.723,0.325,0.578,0.538,��쐼,8.9,��
2023/09/21,20:50,0.541,0.817,0.499,1.013,0.723,0.326,0.578,0.537,��쐼,7.5,��
2023/09/21,21:00,0.539,0.819,0.499,1.013,0.724,0.327,0.579,0.537,�쐼,8.3,��
2023/09/21,21:10,0.540,0.818,0.498,1.014,0.724,0.326,0.579,0.539,�쐼,8.8,��
2023/09/21,21:20,0.542,0.820,0.498,1.012,0.724,0.326,0.578,0.537,�쐼,8.2,��
2023/09/21,21:30,0.539,0.818,0.498,1.012,0.724,0.326,0.578,0.537,�쐼,7.6,��
2023/09/21,21:40,0.541,0.817,0.497,1.012,0.726,0.326,0.578,0.538,�쐼,8.6,��
2023/09/21,21:50,0.540,0.820,0.498,1.013,0.726,0.327,0.579,0.539,�쐼,8.9,��
2023/09/21,22:00,0.540,0.817,0.498,1.013,0.725,0.325,0.579,0.538,�쐼,6.7,��
2023/09/21,22:10,0.542,0.820,0.499,1.011,0.723,0.326,0.579,0.537,��쐼,5.0,��
2023/09/21,22:20,0.540,0.817,0.499,1.014,0.723,0.325,0.580,0.537,��쐼,7.4,��
2023/09/21,22:30,0.540,0.818,0.501,1.013,0.724,0.327,0.579,0.538,��쐼,7.3,��
2023/09/21,22:40,0.540,0.820,0.500,1.011,0.725,0.326,0.579,0.537,��쐼,6.8,��
2023/09/21,22:50,0.540,0.820,0.499,1.011,0.725,0.326,0.579,0.537,�쐼,7.7,�L
2023/09/21,23:00,0.540,0.818,0.498,1.011,0.725,0.327,0.580,0.537,��쐼,9.2,�L
2023/09/21,23:10,0.541,0.820,0.499,1.012,0.726,0.327,0.580,0.537,�쐼,8.1,�L
2023/09/21,23:20,0.539,0.821,0.499,1.013,0.725,0.329,0.580,0.539,�쐼,7.8,�L
2023/09/21,23:30,0.541,0.821,0.500,1.014,0.725,0.327,0.580,0.538,��쐼,7.2,��
2023/09/21,23:40,0.540,0.818,0.501,1.010,0.726,0.327,0.580,0.538,��쐼,7.0,�L
2023/09/21,23:50,-,-,-,-,-,-,-,-,-,-,-
